TimeEST,TemperatureF,Dew PointF,Humidity,Sea Level PressureIn,VisibilityMPH,Wind Direction,Wind SpeedMPH,Gust SpeedMPH,PrecipitationIn,Events,Conditions,WindDirDegrees,DateUTC
12:52 AM,36.0,34.0,93,30.00,0.5,Calm,Calm,-,N/A,Fog,Fog,0,2012-12-09 05:52:00
12:59 AM,37.4,35.6,93,29.99,1.5,Calm,Calm,-,N/A,,Scattered Clouds,0,2012-12-09 05:59:00
1:03 AM,37.4,35.6,93,29.99,3.0,Calm,Calm,-,N/A,,Scattered Clouds,0,2012-12-09 06:03:00
1:07 AM,35.6,35.6,100,29.99,1.5,Calm,Calm,-,N/A,,Scattered Clouds,0,2012-12-09 06:07:00
1:10 AM,33.8,33.8,100,29.99,0.8,Calm,Calm,-,N/A,,Mist,0,2012-12-09 06:10:00
1:47 AM,35.6,33.8,93,30.01,1.2,Calm,Calm,-,N/A,,Scattered Clouds,0,2012-12-09 06:47:00
1:52 AM,35.1,34.0,96,30.02,1.5,Calm,Calm,-,N/A,,Scattered Clouds,0,2012-12-09 06:52:00
2:00 AM,33.8,33.8,100,30.01,0.8,Calm,Calm,-,N/A,,Mist,0,2012-12-09 07:00:00
2:13 AM,32.0,30.2,93,30.02,2.0,NW,3.5,-,N/A,,Scattered Clouds,310,2012-12-09 07:13:00
2:32 AM,33.8,33.8,100,30.03,4.0,Calm,Calm,-,N/A,,Partly Cloudy,0,2012-12-09 07:32:00
2:38 AM,32.0,30.2,93,30.03,1.8,Calm,Calm,-,N/A,,Partly Cloudy,0,2012-12-09 07:38:00
2:52 AM,32.0,30.9,96,30.05,1.0,Calm,Calm,-,N/A,,Clear,0,2012-12-09 07:52:00
2:56 AM,33.8,32.0,93,30.04,2.0,Calm,Calm,-,N/A,,Clear,0,2012-12-09 07:56:00
3:04 AM,32.0,32.0,100,30.04,3.0,Calm,Calm,-,N/A,,Clear,0,2012-12-09 08:04:00
3:07 AM,32.0,30.2,93,30.05,1.8,Calm,Calm,-,N/A,,Clear,0,2012-12-09 08:07:00
3:11 AM,32.0,30.2,93,30.05,0.8,Calm,Calm,-,N/A,,Clear,0,2012-12-09 08:11:00
3:19 AM,32.0,30.2,93,30.05,0.8,Calm,Calm,-,N/A,,Mist,0,2012-12-09 08:19:00
3:23 AM,33.8,32.0,93,30.05,1.2,Calm,Calm,-,N/A,,Partly Cloudy,0,2012-12-09 08:23:00
3:27 AM,33.8,32.0,93,30.05,3.0,Calm,Calm,-,N/A,,Clear,0,2012-12-09 08:27:00
3:38 AM,32.0,30.2,93,30.05,2.0,Calm,Calm,-,N/A,,Partly Cloudy,0,2012-12-09 08:38:00
3:52 AM,32.0,30.9,96,30.07,4.0,Calm,Calm,-,N/A,,Clear,0,2012-12-09 08:52:00
4:09 AM,32.0,30.2,93,30.07,2.5,Calm,Calm,-,N/A,,Partly Cloudy,0,2012-12-09 09:09:00
4:18 AM,30.2,30.2,100,30.07,1.2,Calm,Calm,-,N/A,,Mostly Cloudy,0,2012-12-09 09:18:00
4:35 AM,30.2,28.4,93,30.08,2.5,Calm,Calm,-,N/A,,Overcast,0,2012-12-09 09:35:00
4:47 AM,30.2,28.4,93,30.08,1.0,Calm,Calm,-,N/A,,Mist,0,2012-12-09 09:47:00
4:48 AM,30.9,30.0,96,30.10,1.0,Calm,Calm,-,N/A,,Mist,0,2012-12-09 09:48:00
5:01 AM,32.0,30.2,93,30.09,1.8,Calm,Calm,-,N/A,,Scattered Clouds,0,2012-12-09 10:01:00
5:08 AM,30.2,30.2,100,30.10,0.8,Calm,Calm,-,N/A,,Mist,0,2012-12-09 10:08:00
5:18 AM,30.2,30.2,100,30.11,1.2,NNE,3.5,-,N/A,,Scattered Clouds,20,2012-12-09 10:18:00
5:22 AM,30.2,30.2,100,30.11,3.0,Calm,Calm,-,N/A,,Partly Cloudy,0,2012-12-09 10:22:00
5:52 AM,32.0,30.0,92,30.15,5.0,NNE,3.5,-,N/A,,Clear,20,2012-12-09 10:52:00
6:52 AM,28.9,28.0,96,30.18,4.0,Calm,Calm,-,N/A,,Clear,0,2012-12-09 11:52:00
7:52 AM,33.1,32.0,96,30.22,4.0,North,4.6,-,N/A,,Clear,350,2012-12-09 12:52:00
8:52 AM,37.9,36.0,93,30.25,10.0,Calm,Calm,-,N/A,,Clear,0,2012-12-09 13:52:00
9:52 AM,39.9,37.9,93,30.27,10.0,Calm,Calm,-,N/A,,Clear,0,2012-12-09 14:52:00
10:52 AM,43.0,34.0,71,30.27,10.0,North,6.9,-,N/A,,Clear,360,2012-12-09 15:52:00
11:52 AM,43.0,32.0,65,30.25,10.0,NNW,3.5,-,N/A,,Clear,340,2012-12-09 16:52:00
1:52 PM,46.0,28.0,50,30.24,10.0,NE,4.6,-,N/A,,Clear,40,2012-12-09 18:52:00
2:52 PM,46.0,28.9,51,30.26,10.0,NE,4.6,-,N/A,,Clear,50,2012-12-09 19:52:00
3:52 PM,44.1,28.0,53,30.27,10.0,Calm,Calm,-,N/A,,Clear,0,2012-12-09 20:52:00
4:52 PM,39.0,28.9,67,30.28,10.0,SE,3.5,-,N/A,,Clear,140,2012-12-09 21:52:00
5:52 PM,39.0,30.9,73,30.30,10.0,Calm,Calm,-,N/A,,Mostly Cloudy,0,2012-12-09 22:52:00
6:52 PM,37.9,32.0,79,30.30,10.0,Calm,Calm,-,N/A,,Overcast,0,2012-12-09 23:52:00
7:52 PM,39.9,28.9,65,30.29,10.0,Calm,Calm,-,N/A,,Overcast,0,2012-12-10 00:52:00
8:52 PM,39.9,30.0,68,30.26,10.0,Calm,Calm,-,N/A,,Overcast,0,2012-12-10 01:52:00
9:40 PM,39.2,30.2,70,30.24,10.0,Calm,Calm,-,0.01,Rain,Light Rain,0,2012-12-10 02:40:00
9:52 PM,39.0,32.0,76,30.24,10.0,Calm,Calm,-,0.01,Rain,Light Rain,0,2012-12-10 02:52:00
10:52 PM,37.9,35.1,89,30.20,8.0,East,3.5,-,0.03,Rain,Light Rain,100,2012-12-10 03:52:00
11:40 PM,37.4,35.6,93,30.17,7.0,East,3.5,-,0.06,Rain,Light Rain,90,2012-12-10 04:40:00
11:49 PM,37.4,35.6,93,30.16,8.0,East,4.6,-,0.07,Rain,Light Rain,80,2012-12-10 04:49:00
11:52 PM,37.9,36.0,93,30.17,8.0,East,4.6,-,0.07,Rain,Light Rain,80,2012-12-10 04:52:00